Hibbing, MN

9:14 PM CDT on April 22, 2018 (GMT -0500)
Chisholm-hibbing

Weather History for KHIB - November, 2011

Change the Weather History Date:

Sunday, November 27, 2011

  Actual Average Record
Temperature  
Mean Temperature 26 °F 19 °F  
Max Temperature 28 °F 28 °F 50 °F (1998)
Min Temperature 24 °F 10 °F -17 °F (1976)
Degree Days  
Heating Degree Days 39 46  
Month to date heating degree days 1033  
Cooling Degree Days 0 0  
Month to date cooling degree days 0  
Moisture  
Dew Point 22 °F    
Average Humidity 84    
Maximum Humidity 91    
Minimum Humidity 78    
Precipitation  
Precipitation 0.00 in - 0.22 in (1984)
Sea Level Pressure  
Sea Level Pressure 30.15 in    
Wind  
Wind Speed 14 mph (NNW)    
Max Wind Speed 25 mph    
Max Gust Speed 31 mph    
Visibility 10 miles    
Events      
T = Trace of Precipitation, MM = Missing Value Source: NWS Daily Summary

Daily Weather History Graph

Daily Weather History Graph

Search for Another Location

Airport or City:

Astronomy

Nov. 27, 2011 Rise Set
Actual Time 7:32 AM CST 4:25 PM CST
Civil Twilight 6:57 AM CST 4:59 PM CST
Nautical Twilight 6:19 AM CST 5:37 PM CST
Astronomical Twilight 5:42 AM CST 6:14 PM CST
Moon 9:59 AM CST (11/27) 7:03 PM CST (11/27)
Length of Visible Light 10h 01m
Length of Day
8h 52m
Waxing Crescent, 8% of the Moon is Illuminated
Nov 27
Waxing Crescent
Dec 2
First Quarter
Dec 10
Full
Dec 17
Last Quarter
Dec 24
New

Hourly Weather History & Observations

Time (CST) Temp. Windchill Dew Point Humidity Pressure Visibility Wind Dir Wind Speed Gust Speed Precip Events Conditions
12:53 AM 28.0 °F 15.3 °F 24.1 °F 85% 30.09 in 10.0 mi NNW 18.4 mph - N/A   Overcast
1:53 AM 28.0 °F 14.9 °F 24.1 °F 85% 30.10 in 10.0 mi NNW 19.6 mph 28.8 mph N/A   Overcast
2:53 AM 28.0 °F 13.3 °F 24.1 °F 85% 30.12 in 10.0 mi NNW 25.3 mph 31.1 mph N/A   Overcast
3:27 AM 28.4 °F 15.8 °F 24.8 °F 86% 30.07 in 10.0 mi NNW 18.4 mph 26.5 mph N/A   Overcast
3:46 AM 28.4 °F 15.8 °F 24.8 °F 86% 30.07 in 10.0 mi NNW 18.4 mph - 0.00 in   Overcast
3:53 AM 28.0 °F 16.5 °F 24.1 °F 85% 30.14 in 10.0 mi NNW 15.0 mph 24.2 mph 0.00 in   Overcast
4:14 AM 28.4 °F 16.6 °F 23.0 °F 80% 30.08 in 10.0 mi NNW 16.1 mph 24.2 mph 0.00 in   Overcast
4:48 AM 28.4 °F 17.0 °F 24.8 °F 86% 30.08 in 10.0 mi NNW 15.0 mph 23.0 mph 0.00 in   Overcast
4:53 AM 27.0 °F 14.3 °F 24.1 °F 89% 30.14 in 10.0 mi NNW 17.3 mph 26.5 mph 0.00 in   Overcast
5:50 AM 26.6 °F 14.7 °F 21.2 °F 80% 30.10 in 10.0 mi NNW 15.0 mph 28.8 mph 0.00 in   Overcast
5:53 AM 27.0 °F 15.6 °F 21.0 °F 78% 30.17 in 10.0 mi NNW 13.8 mph 28.8 mph 0.00 in   Overcast
6:53 AM 27.0 °F 14.3 °F 21.0 °F 78% 30.19 in 10.0 mi North 17.3 mph 25.3 mph N/A   Overcast
7:53 AM 27.0 °F 14.3 °F 21.0 °F 78% 30.20 in 10.0 mi North 17.3 mph 24.2 mph 0.00 in   Overcast
8:53 AM 26.6 °F 15.2 °F 21.2 °F 80% 30.14 in 10.0 mi North 13.8 mph 18.4 mph N/A   Overcast
9:53 AM 27.0 °F 14.7 °F 21.0 °F 78% 30.21 in 10.0 mi NNW 16.1 mph 25.3 mph N/A   Overcast
10:53 AM 27.0 °F 17.3 °F 21.0 °F 78% 30.22 in 10.0 mi North 10.4 mph - N/A   Overcast
11:53 AM 27.0 °F 18.0 °F 23.0 °F 85% 30.21 in 10.0 mi NNW 9.2 mph - N/A   Overcast
12:53 PM 27.0 °F 19.5 °F 23.0 °F 85% 30.21 in 10.0 mi North 6.9 mph - 0.00 in   Overcast
1:00 PM 26.6 °F 17.5 °F 23.0 °F 86% 30.15 in 10.0 mi North 9.2 mph - N/A   Overcast
1:53 PM 27.0 °F 18.0 °F 23.0 °F 85% 30.22 in 10.0 mi NNW 9.2 mph - N/A   Overcast
2:37 PM 26.6 °F 16.2 °F 21.2 °F 80% 30.14 in 10.0 mi NW 11.5 mph - N/A   Overcast
2:53 PM 26.1 °F 16.2 °F 21.9 °F 84% 30.20 in 10.0 mi NW 10.4 mph - N/A   Overcast
3:53 PM 26.1 °F 18.4 °F 21.9 °F 84% 30.20 in 10.0 mi North 6.9 mph - N/A   Overcast
4:06 PM 26.6 °F 17.5 °F 21.2 °F 80% 30.13 in 10.0 mi North 9.2 mph - N/A   Overcast
4:53 PM 26.1 °F 19.4 °F 21.9 °F 84% 30.21 in 10.0 mi NNW 5.8 mph - N/A   Overcast
5:49 PM 24.8 °F 17.9 °F 21.2 °F 86% 30.14 in 10.0 mi WNW 5.8 mph - N/A   Overcast
5:53 PM 25.0 °F 19.3 °F 21.0 °F 85% 30.22 in 10.0 mi NNW 4.6 mph - N/A   Overcast
6:43 PM 24.8 °F - 21.2 °F 86% 30.13 in 10.0 mi Calm Calm - N/A   Overcast
6:53 PM 25.0 °F 20.7 °F 21.9 °F 88% 30.20 in 10.0 mi West 3.5 mph - N/A   Overcast
7:53 PM 24.1 °F 18.2 °F 21.0 °F 88% 30.17 in 10.0 mi SSE 4.6 mph - N/A   Overcast
8:53 PM 25.0 °F 20.7 °F 21.9 °F 88% 30.16 in 10.0 mi SSE 3.5 mph - N/A   Overcast
9:53 PM 24.1 °F 19.7 °F 21.9 °F 91% 30.17 in 10.0 mi Variable 3.5 mph - N/A   Overcast
10:53 PM 25.0 °F 17.1 °F 21.9 °F 88% 30.15 in 10.0 mi SSW 6.9 mph - N/A   Overcast
11:53 PM 25.0 °F 20.7 °F 21.9 °F 88% 30.14 in 10.0 mi SSW 3.5 mph - N/A   Overcast